This demonstration page uses our WeatherBlox Daily Observations layout. Learn more.

Hourly Observations for June 1, 2016

Temp ( °F °C ) Dew Point ( °F °C ) Humidity (%) Winds ( mph kmh ) Pressure ( in mb ) Visibility ( mi km ) Precip ( " mm )
12:15 am 00:15 Clear 60 15.6 48 9 65 65 Calm 30.03 1017 10 16.0934 0 0
12:35 am 00:35 Clear 60 15.6 47 8.6 63 63 Calm 30.03 1017 10 16.0934 0 0
12:55 am 00:55 Clear 59 15 48 9 68 68 Calm 30.03 1017 10 16.0934 0 0
1:15 am 01:15 Clear 59 14.9 47 8.4 65 65 Calm 30.03 1017 10 16.0934 0 0
1:35 am 01:35 Clear 57 13.9 48 9.1 73 73 Calm 30.03 1017 10 16.0934 0 0
1:55 am 01:55 Clear 57 14.1 48 8.8 71 71 W 3 6 30.03 1017 10 16.0934 0 0
2:15 am 02:15 Clear 57 13.9 49 9.5 75 75 N 9 15 30.06 1018 10 16.0934 0 0
2:35 am 02:35 Clear 56 13.1 49 9.5 79 79 N 8 13 30.09 1019 10 16.0934 0 0
2:50 am 02:50 Clear 55 13 49 9.2 78 78 N 7 11 30.09 1019 10 16.0934 0 0
3:15 am 03:15 Clear 54 12.3 48 8.9 80 80 N 5 7 30.09 1019 10 16.0934 0 0
3:35 am 03:35 Clear 54 12.2 48 9 81 81 N 3 6 30.09 1019 10 16.0934 0 0
3:55 am 03:55 Clear 54 12.1 48 9 82 82 NNW 5 7 30.09 1019 10 16.0934 0 0
4:15 am 04:15 Clear 53 11.9 48 8.9 82 82 N 6 9 30.09 1019 10 16.0934 0 0
4:35 am 04:35 Clear 54 12 48 8.7 80 80 N 7 11 30.06 1018 10 16.0934 0 0
4:55 am 04:55 Clear 53 11.5 48 8.7 83 83 N 7 11 30.09 1019 10 16.0934 0 0
5:15 am 05:15 Clear 54 12 46 8 77 77 NNW 6 9 30.09 1019 10 16.0934 0 0
5:35 am 05:35 Clear 53 11.8 46 7.6 76 76 NNW 3 6 30.09 1019 10 16.0934 0 0
5:55 am 05:55 Clear 52 11 46 7.7 80 80 NNW 6 9 30.09 1019 10 16.0934 0 0
6:15 am 06:15 Sunny 52 11.3 46 7.8 79 79 NNW 7 11 30.09 1019 10 16.0934 0 0
6:35 am 06:35 Sunny 53 11.4 46 8 80 80 NW 5 7 30.09 1019 10 16.0934 0 0
6:55 am 06:55 Sunny 52 11.3 47 8.5 83 83 NNW 3 6 30.09 1019 10 16.0934 0 0
7:15 am 07:15 Sunny 54 12 47 8.5 79 79 NNW 8 13 30.09 1019 10 16.0934 0 0
7:35 am 07:35 Sunny 55 12.6 47 8.2 75 75 N 9 15 30.09 1019 10 16.0934 0 0
7:55 am 07:55 Sunny 56 13.2 47 8.3 72 72 NNW 5 7 30.09 1019 10 16.0934 0 0
8:15 am 08:15 Sunny 58 14.3 47 8.3 67 67 N 9 15 30.06 1018 10 16.0934 0 0
8:35 am 08:35 Sunny 59 15.1 46 7.9 62 62 N 12 19 30.09 1019 10 16.0934 0 0
8:55 am 08:55 Sunny 59 15.1 46 7.8 62 62 N 9 15 30.09 1019 10 16.0934 0 0
9:15 am 09:15 Sunny 61 15.9 46 7.6 58 58 N 9 15 30.09 1019 10 16.0934 0 0
9:35 am 09:35 Sunny 62 16.5 46 7.7 56 56 N 7 11 30.09 1019 10 16.0934 0 0
9:55 am 09:55 Sunny 63 17 47 8.1 56 56 N 13 20 30.09 1019 10 16.0934 0 0
10:15 am 10:15 Sunny 64 17.7 47 8.3 54 54 N 9 15 30.06 1018 10 16.0934 0 0
10:35 am 10:35 Sunny 65 18.1 46 7.6 51 51 N 9 15 30.06 1018 10 16.0934 0 0
10:55 am 10:55 Sunny 66 19 45 7.4 47 47 N 10 17 30.06 1018 10 16.0934 0 0
11:15 am 11:15 Sunny 67 19.5 45 7.4 46 46 NNW 9 15 30.06 1018 10 16.0934 0 0
11:35 am 11:35 Sunny 68 19.8 46 7.6 45 45 N 8 13 30.06 1018 10 16.0934 0 0
12:15 pm 12:15 Sunny 69 20.3 46 7.8 45 45 NNW 9 15 30.06 1018 10 16.0934 0 0
12:35 pm 12:35 Sunny 69 20.7 45 7.1 41 41 NNW 9 15 30.03 1017 10 16.0934 0 0
12:55 pm 12:55 Sunny 71 21.5 47 8.1 42 42 N 3 6 30 1016 10 16.0934 0 0
1:15 pm 13:15 Sunny 71 21.5 43 6.3 37 37 N 3 6 30 1016 10 16.0934 0 0
1:35 pm 13:35 Sunny 72 22.1 45 7 38 38 N 7 11 30 1016 10 16.0934 0 0
1:55 pm 13:55 Sunny 71 21.9 44 6.4 37 37 Calm 30 1016 10 16.0934 0 0
2:15 pm 14:15 Sunny 73 22.5 44 6.8 36 36 Calm 30 1016 10 16.0934 0 0
2:55 pm 14:55 Sunny 73 22.9 42 5.7 33 33 Calm 29.97 1015 10 16.0934 0 0
3:15 pm 15:15 Sunny 74 23.2 44 6.8 35 35 WSW 5 7 29.97 1015 10 16.0934 0 0
3:35 pm 15:35 Sunny 74 23.5 44 6.4 33 33 W 9 15 29.97 1015 10 16.0934 0 0
3:55 pm 15:55 Sunny 74 23.1 42 5.4 32 32 Calm 29.97 1015 10 16.0934 0 0
4:15 pm 16:15 Sunny 75 24 44 6.5 33 33 SSW 9 15 29.94 1014 10 16.0934 0 0
4:35 pm 16:35 Sunny 76 24.4 44 6.9 33 33 WNW 5 7 29.94 1014 10 16.0934 0 0
4:55 pm 16:55 Sunny 75 24.1 45 7.1 34 34 W 7 11 29.94 1014 10 16.0934 0 0
5:15 pm 17:15 Sunny 76 24.2 44 6.9 33 33 W 6 9 29.91 1013 10 16.0934 0 0
5:35 pm 17:35 Sunny 75 24.1 44 6.5 32 32 Calm 29.91 1013 10 16.0934 0 0
5:55 pm 17:55 Sunny 74 23.4 44 6.6 34 34 Calm 29.91 1013 10 16.0934 0 0
6:35 pm 18:35 Sunny 75 23.9 44 6.7 33 33 WNW 5 7 29.91 1013 7 11.26538 0 0
6:55 pm 18:55 Sunny 70 21 44 6.5 39 39 Calm 29.88 1012 10 16.0934 0 0
7:15 pm 19:15 Sunny 75 23.7 43 6.3 33 33 Calm 29.91 1013 10 16.0934 0 0
7:35 pm 19:35 Sunny 74 23.5 43 6.3 33 33 WSW 3 6 29.91 1013 10 16.0934 0 0
7:55 pm 19:55 Sunny 74 23.2 44 6.5 34 34 SW 5 7 29.94 1014 10 16.0934 0 0
8:15 pm 20:15 Sunny 73 22.6 46 7.5 38 38 S 9 15 29.97 1015 10 16.0934 0 0
8:35 pm 20:35 Sunny 72 22.2 47 8.2 41 41 SSW 8 13 29.97 1015 10 16.0934 0 0
8:55 pm 20:55 Sunny 70 21.1 49 9.2 47 47 SSW 6 9 29.97 1015 10 16.0934 0 0
9:15 pm 21:15 Clear 69 20.3 48 8.9 48 48 SSW 8 13 29.97 1015 10 16.0934 0 0
9:35 pm 21:35 Clear 68 19.8 48 8.9 50 50 SSW 8 13 30 1016 10 16.0934 0 0
9:55 pm 21:55 Clear 67 19.3 49 9.2 52 52 SSW 6 9 30 1016 10 16.0934 0 0
10:15 pm 22:15 Clear 65 18.5 50 9.8 57 57 SSW 6 9 30.03 1017 10 16.0934 0 0
10:35 pm 22:35 Clear 65 18.5 50 9.9 57 57 SSW 5 7 30.03 1017 10 16.0934 0 0
10:55 pm 22:55 Clear 64 17.9 50 10.1 60 60 SSW 5 7 30.03 1017 10 16.0934 0 0
11:35 pm 23:35 Clear 62 16.6 51 10.6 68 68 S 6 9 30.06 1018 10 16.0934 0 0
11:55 pm 23:55 Clear 63 17.3 51 10.5 65 65 SSW 6 9 30.03 1017 10 16.0934 0 0

Powered by AerisWeather